Location: Bazinghen
(50.8246°N, 1.6616°E)
Time: 22:31:06
(UTC+00:00)

Cosmos 1825 - Pass Details

Date: 09 April 2020
Orbit: 502 x 509 km, 82.5° (Epoch: 28 May)

Event Time Altitude Azimuth Distance (km) Brightness Sun altitude
Rises 21:35:07 0° 346° (NNW) 2,631 6.9 -23.9°
Reaches altitude 10° 21:37:16 10° 342° (NNW) 1,739 5.8 -24.1°
Enters shadow 21:40:41 53° 287° (WNW) 629 2.8 -24.4°
